LEMUR-2-TINYKEV (43883 NORAD) Tracking and Keplerian Element Data

This shows tracking and keplerian element data for the satellite.

Feedback or suggestion? Click here.




ElementValue
Catalog43883
NameLEMUR-2-TINYKEV
Epoch Orbit100
Epoch Day16.20742593
Epoch Year2019
RAAN286.3816
Inclination97.728
Eccentricity0.0011732
Argument of Perigee171.3099
Mean Anonmoly188.8327
Mean Motion14.96360348
Decay Rate5.8E-06
L11 43883U 18111H 19016.20742593 .00000580 00000-0 56322-4 0 9992
L22 43883 97.7280 286.3816 0011732 171.3099 188.8327 14.96360348 1001

Live tracking and technical data element details for LEMUR-2-TINYKEV (NORAD 43883). LEMUR-2-TINYKEV can be tracked NOW for your location showing map with azimuth and elevation plus other details from your city location.

Track the satellite on the map from your city or location and see movement details for azimuth, elevation, latitude, longitude, range, height, and movement on the map or in text.







IsCatalogInMostPopularTable: catalog: 43883, numindb: 17
Update: records affected: 1



GetName: 43883 LEMUR-2-TINYKEV

Hit Count: updated at: Thu, 17 Jan 2019 15:20:59 GMT